Wind_Speed
9 10 10 10 10 10 11 11 11 11 11 12 12 12 11 12 12 11 11 11 11 11 11 11 11 11 11 11 11 11 11 11 11 11 11 11 12 13 14 14 14 14 14 14
10 10 10 10 11 11 11 11 11 11 11 12 12 12 11 12 12 12 11 12 11 11 11 11 11 11 11 11 11 12 12 11 12 12 11 11 12 12 13 14 14 14 15 15
12 11 11 11 11 11 11 11 11 12 12 13 13 12 11 11 11 11 11 11 12 11 11 11 11 11 11 11 11 11 12 12 12 12 12 12 12 13 13 13 14 14 15 15
12 12 12 12 12 11 11 11 12 13 13 13 13 13 12 12 12 11 12 12 11 11 11 12 12 12 11 11 11 12 12 12 12 12 13 13 13 13 13 13 14 14 15 15
13 13 13 13 13 12 12 13 13 13 14 14 14 13 12 12 11 11 12 12 13 12 12 13 13 12 12 12 12 12 12 12 12 13 13 13 13 13 14 14 14 15 15 15
13 14 14 14 14 14 14 14 15 14 14 14 14 14 13 12 12 12 13 13 13 13 13 13 13 13 12 13 13 13 13 12 13 13 13 13 13 14 14 15 15 15 16 15
14 14 15 15 15 15 15 15 15 15 14 14 14 15 13 12 11 12 13 13 14 14 14 14 13 13 13 13 14 14 14 14 13 14 14 14 15 15 15 16 16 16 16 16
14 14 14 14 15 15 15 15 16 16 15 14 14 14 13 12 12 13 14 14 15 15 15 15 15 14 14 14 15 15 15 14 14 15 15 15 16 16 17 17 17 17 17 18
14 14 14 14 14 14 15 16 16 17 17 16 15 13 13 13 14 14 15 15 16 16 16 16 16 15 15 15 15 15 15 15 15 15 16 17 17 18 18 18 18 18 18 18
15 15 14 14 14 15 16 16 17 18 17 17 16 15 14 14 15 15 15 16 16 16 16 16 16 16 16 16 17 16 16 16 17 17 18 18 18 19 19 19 19 19 19 20
15 16 15 16 16 16 16 16 17 18 18 18 18 16 15 16 16 16 16 16 16 16 16 17 17 17 17 17 17 17 17 18 18 19 19 19 19 19 19 20 20 20 21 21
16 16 16 16 16 16 17 17 17 18 19 19 20 17 16 16 17 18 17 17 17 17 17 17 17 17 17 18 18 18 19 19 19 19 20 20 20 20 20 21 21 21 22 22
17 17 17 16 17 17 18 18 19 19 20 20 20 18 16 17 19 19 18 18 17 17 18 18 18 18 18 18 19 19 19 20 20 20 20 20 21 21 22 22 22 22 23 23
19 19 18 18 18 19 19 19 20 21 21 21 21 20 19 19 20 20 19 19 19 18 18 18 18 18 18 19 19 20 20 20 20 20 20 21 22 22 22 23 23 24 24 24
20 20 20 19 19 19 19 20 21 22 22 22 21 21 19 20 21 21 20 20 20 20 19 19 20 20 20 20 19 20 20 21 21 21 22 22 23 23 24 24 25 25 25 25
21 22 22 21 21 21 21 21 22 22 23 23 22 20 20 21 22 22 22 22 22 21 21 20 20 21 21 21 21 21 21 22 22 22 23 23 24 25 25 26 26 25 26 26
23 23 24 23 23 23 22 22 23 24 24 24 23 22 21 21 22 22 23 22 22 21 21 21 21 22 22 22 22 22 23 23 24 24 24 25 25 26 26 26 26 26 26 26
25 25 25 25 25 25 23 22 23 23 23 23 23 22 22 22 22 23 23 23 23 22 22 22 23 23 23 23 24 24 24 25 25 25 26 26 26 26 27 27 27 27 27 26
25 26 26 26 26 25 23 23 23 23 22 22 23 23 23 23 22 22 23 23 23 23 24 24 24 24 24 25 25 25 25 26 26 27 27 27 27 28 28 28 28 28 28 27
26 26 27 27 27 26 24 24 24 24 23 22 23 23 23 23 23 23 23 24 23 24 24 25 24 24 25 25 25 26 26 27 27 28 28 28 28 29 29 28 28 28 28 28
27 27 27 27 28 27 25 25 25 25 24 24 24 24 23 24 24 24 24 25 24 25 25 25 25 25 25 26 26 27 27 28 28 29 29 29 29 29 28 28 28 28 28 28
28 28 28 27 28 26 25 25 26 26 26 25 25 25 24 24 24 25 24 24 25 25 26 26 26 26 26 27 27 28 29 28 29 29 29 29 28 27 28 28 27 27 28 28
28 28 28 28 27 27 27 26 26 26 26 26 26 25 25 25 25 26 25 25 25 26 27 28 27 27 28 28 29 29 29 29 29 29 29 29 27 27 27 27 26 27 27 27
29 28 28 28 27 27 27 28 27 27 27 27 26 25 25 26 26 27 27 26 26 27 27 28 28 28 29 29 30 30 30 30 29 29 29 27 27 26 26 25 25 25 26 27
29 29 29 29 28 28 28 27 27 27 27 27 26 26 25 25 25 26 28 27 27 27 28 29 30 30 29 30 30 30 30 29 29 29 28 27 27 26 25 25 24 25 26 26
30 30 29 29 29 29 28 27 27 27 27 27 27 27 27 27 27 28 28 28 28 29 29 31 31 31 31 31 31 31 30 29 28 28 27 27 27 27 26 26 25 25 25 25
Wind_Direction
264 264 265 267 268 266 266 267 264 266 266 265 261 259 257 257 256 255 257 258 260 265 267 269 272 274 275 276 280 279 276 276 279 282 281 280 283 284 284 285 287 289 287 283
263 265 265 265 266 268 268 268 270 270 269 267 262 260 257 257 259 259 259 258 258 262 266 269 273 276 280 279 280 280 276 277 281 284 284 282 283 285 286 286 287 288 286 283
267 264 264 265 263 264 267 268 269 272 272 268 265 263 261 259 259 259 259 258 257 259 264 268 271 274 279 281 284 284 284 284 283 283 286 286 285 284 286 287 288 288 286 285
267 266 266 264 261 263 264 268 271 272 271 268 267 264 261 260 258 258 259 261 259 258 261 267 270 273 279 282 286 289 288 288 285 284 286 287 286 287 289 289 288 289 289 287
267 265 267 266 261 262 265 267 270 272 271 268 266 267 264 261 260 260 260 260 259 260 262 266 270 274 278 281 285 289 289 287 286 286 287 289 287 288 289 290 289 287 287 286
265 267 268 267 264 262 265 270 271 270 269 267 267 267 265 267 263 262 261 261 261 262 264 268 273 275 277 279 282 287 288 286 287 287 287 289 289 288 289 290 289 287 285 284
266 266 267 266 266 264 263 267 269 269 268 269 265 263 264 267 265 265 265 262 262 264 267 270 273 276 277 280 283 286 288 285 286 287 288 289 288 289 290 291 290 286 285 285
267 265 266 266 264 263 265 267 268 270 272 269 265 264 265 265 264 267 266 263 264 267 267 268 270 273 277 281 284 285 287 282 284 286 286 287 288 289 291 291 289 286 286 286
267 265 266 267 267 267 265 264 267 270 273 271 266 266 264 265 265 267 268 267 268 269 269 268 269 272 276 280 283 284 286 284 286 286 286 287 287 288 290 291 288 285 285 286
269 266 266 266 266 265 264 264 264 268 271 271 270 267 266 265 267 268 267 270 269 268 268 267 269 272 275 279 282 284 286 288 288 287 286 286 286 288 289 289 288 285 284 284
269 266 265 265 268 268 264 262 263 265 267 270 270 268 269 266 267 269 269 268 270 270 270 269 271 273 276 280 281 282 284 286 288 288 287 286 286 287 288 285 284 284 284 285
269 269 268 268 266 265 263 262 263 265 267 269 272 271 268 266 266 270 270 270 272 273 273 272 273 274 277 280 282 282 284 286 287 288 288 287 287 287 286 284 283 284 285 285
268 271 272 269 268 267 265 264 263 265 267 269 272 274 269 268 268 269 271 273 274 273 273 272 272 274 276 278 280 282 285 287 287 287 288 289 287 287 284 284 284 285 286 285
269 272 273 273 273 268 265 264 264 265 268 271 273 274 271 270 270 270 270 272 273 273 273 272 273 275 277 278 280 281 283 284 286 287 288 289 287 287 285 285 285 284 284 284
268 269 270 271 271 268 265 264 265 267 270 272 274 274 271 269 269 270 270 271 270 271 271 273 274 275 276 278 280 282 283 284 286 287 288 289 288 287 287 286 285 284 284 284
266 267 268 269 270 268 268 268 268 269 271 272 273 273 271 270 269 269 270 271 271 273 271 272 274 275 275 277 279 281 282 284 285 287 288 288 288 288 288 286 286 285 285 285
265 267 268 269 269 269 268 270 271 272 272 272 272 273 272 270 270 270 269 269 271 273 273 274 273 274 275 277 279 281 283 284 285 286 287 288 289 289 289 286 285 285 285 286
264 266 268 270 268 267 271 270 272 272 273 273 272 272 272 272 271 269 269 269 268 270 272 273 274 274 275 278 279 280 281 282 284 285 287 288 289 290 288 286 286 285 285 285
264 265 267 268 268 268 269 270 272 273 272 272 272 272 273 272 272 272 273 271 269 270 272 274 275 276 277 278 279 280 282 283 284 285 287 288 289 289 288 286 285 284 284 284
262 265 266 267 267 269 269 269 269 272 272 272 273 273 274 273 273 273 273 271 270 271 274 275 276 277 278 279 280 281 283 285 286 287 286 288 290 289 287 285 284 283 282 283
261 263 265 266 268 269 270 269 269 270 272 272 272 272 273 274 274 274 272 270 271 272 274 276 277 277 278 280 280 281 283 285 286 287 287 287 289 289 287 285 284 282 282 282
261 263 264 265 266 268 268 268 268 270 270 271 271 271 272 274 276 275 272 271 271 273 274 275 276 277 278 280 282 284 285 286 286 287 287 287 289 289 288 285 284 282 281 283
261 262 264 264 265 266 266 266 268 268 268 269 271 271 272 274 275 274 271 271 272 274 277 277 277 277 278 280 283 285 285 286 286 286 287 288 287 288 289 288 284 282 282 282
262 260 262 263 265 266 266 266 266 266 267 268 269 270 272 274 274 273 273 274 274 275 278 278 278 279 280 281 284 284 286 286 286 285 285 285 286 288 289 288 285 284 283 283
262 261 262 263 264 264 265 265 266 266 266 267 268 270 271 272 274 275 275 277 276 278 279 280 281 280 280 281 282 284 285 286 285 285 283 284 286 288 289 288 286 286 285 283
263 263 264 264 264 262 262 262 263 265 266 267 268 270 270 272 274 276 277 278 278 279 279 280 281 281 281 282 283 284 284 285 284 283 283 283 284 286 288 288 287 287 286 283
Height
5826 5827 5827 5828 5828 5829 5829 5830 5830 5831 5831 5831 5831 5832 5832 5832 5833 5834 5834 5835 5835 5835 5835 5835 5835 5834 5834 5834 5833 5833 5832 5832 5831 5830 5830 5829 5829 5828 5827 5827 5826 5825 5824 5823
5824 5824 5825 5825 5825 5826 5826 5827 5827 5828 5828 5828 5828 5829 5830 5830 5831 5831 5832 5832 5832 5833 5832 5832 5832 5831 5831 5831 5830 5830 5829 5828 5828 5827 5827 5826 5825 5825 5824 5823 5822 5821 5821 5820
5821 5822 5822 5822 5823 5823 5824 5824 5825 5825 5825 5825 5826 5827 5827 5828 5828 5829 5829 5829 5830 5830 5830 5830 5829 5829 5828 5828 5827 5827 5826 5825 5824 5824 5823 5823 5822 5821 5821 5820 5819 5818 5817 5816
5818 5818 5819 5819 5820 5820 5821 5822 5822 5822 5822 5822 5823 5824 5825 5825 5825 5826 5826 5826 5827 5827 5827 5827 5826 5826 5825 5825 5824 5823 5823 5822 5821 5821 5820 5819 5819 5818 5817 5816 5815 5814 5813 5812
5815 5815 5816 5816 5817 5817 5818 5818 5819 5818 5818 5819 5820 5820 5822 5822 5822 5823 5823 5823 5824 5824 5824 5824 5823 5823 5822 5822 5821 5820 5820 5819 5818 5817 5816 5816 5815 5814 5813 5812 5811 5810 5809 5808
5812 5812 5813 5813 5813 5814 5814 5815 5815 5815 5815 5816 5817 5817 5818 5819 5820 5820 5820 5820 5821 5821 5821 5821 5820 5819 5819 5819 5818 5817 5816 5815 5815 5814 5813 5812 5811 5810 5810 5809 5807 5806 5805 5804
5809 5809 5809 5810 5810 5810 5811 5812 5811 5811 5811 5813 5813 5813 5816 5816 5816 5816 5817 5817 5817 5817 5817 5817 5817 5816 5816 5815 5815 5814 5813 5812 5811 5810 5809 5808 5807 5806 5805 5804 5803 5802 5801 5800
5806 5806 5806 5806 5806 5806 5807 5808 5808 5808 5808 5809 5809 5810 5813 5813 5813 5813 5813 5813 5813 5813 5813 5813 5813 5812 5812 5811 5811 5810 5809 5808 5807 5806 5805 5804 5803 5802 5801 5800 5798 5797 5796 5795
5802 5803 5802 5802 5802 5802 5803 5803 5804 5804 5804 5805 5806 5807 5809 5809 5809 5809 5809 5810 5809 5809 5809 5809 5809 5808 5808 5807 5806 5805 5804 5803 5803 5802 5801 5800 5798 5797 5796 5795 5794 5792 5791 5790
5798 5799 5799 5798 5799 5798 5799 5799 5799 5799 5800 5800 5802 5803 5805 5805 5805 5805 5805 5805 5805 5805 5804 5804 5804 5804 5803 5802 5802 5801 5800 5799 5798 5797 5796 5795 5793 5792 5791 5790 5788 5787 5786 5785
5794 5795 5795 5795 5795 5794 5795 5795 5795 5795 5795 5796 5797 5801 5800 5800 5800 5800 5800 5800 5800 5800 5800 5800 5799 5799 5799 5798 5797 5796 5795 5794 5793 5792 5790 5789 5788 5787 5786 5784 5783 5782 5780 5779
5790 5790 5790 5791 5791 5790 5790 5790 5791 5791 5791 5791 5791 5797 5795 5796 5795 5795 5795 5795 5795 5795 5795 5794 5794 5794 5793 5793 5792 5791 5790 5789 5787 5786 5785 5783 5782 5781 5780 5778 5777 5775 5774 5773
5786 5786 5786 5787 5788 5787 5786 5786 5786 5786 5786 5786 5786 5791 5790 5790 5790 5790 5790 5790 5790 5790 5790 5789 5789 5789 5788 5788 5787 5786 5785 5783 5782 5781 5779 5778 5776 5775 5774 5772 5770 5769 5768 5766
5781 5781 5782 5782 5781 5781 5781 5782 5781 5781 5781 5781 5782 5783 5785 5784 5784 5784 5784 5784 5784 5784 5784 5784 5784 5783 5783 5782 5781 5780 5779 5778 5776 5775 5774 5772 5770 5769 5767 5766 5764 5763 5761 5760
5776 5776 5776 5776 5776 5776 5776 5776 5776 5776 5775 5775 5776 5776 5778 5778 5778 5778 5778 5778 5779 5779 5778 5778 5778 5777 5777 5776 5775 5775 5773 5772 5771 5769 5768 5766 5764 5762 5761 5759 5757 5756 5754 5752
5770 5770 5770 5771 5770 5770 5770 5771 5771 5770 5770 5769 5769 5770 5771 5771 5771 5771 5771 5772 5772 5772 5772 5772 5771 5771 5770 5770 5769 5768 5767 5766 5764 5763 5761 5759 5757 5755 5754 5752 5750 5748 5747 5745
5764 5764 5764 5765 5764 5764 5765 5766 5765 5764 5764 5764 5763 5765 5764 5764 5764 5764 5764 5765 5765 5766 5766 5765 5765 5764 5764 5763 5762 5762 5761 5759 5758 5756 5754 5752 5750 5748 5746 5744 5742 5741 5739 5737
5757 5757 5757 5757 5758 5758 5762 5759 5759 5758 5758 5758 5757 5757 5757 5757 5757 5757 5758 5758 5758 5758 5758 5758 5758 5757 5757 5756 5755 5754 5753 5752 5751 5749 5747 5745 5743 5741 5739 5736 5735 5733 5731 5730
5750 5750 5750 5750 5749 5751 5754 5753 5752 5752 5752 5752 5751 5751 5751 5751 5751 5751 5751 5751 5751 5751 5751 5751 5751 5750 5750 5749 5748 5747 5746 5745 5743 5741 5739 5737 5735 5733 5730 5728 5726 5725 5723 5721
5743 5743 5743 5743 5742 5744 5748 5747 5745 5746 5745 5746 5745 5744 5744 5744 5745 5746 5745 5744 5744 5744 5744 5744 5743 5743 5742 5741 5740 5739 5738 5736 5735 5733 5731 5728 5726 5724 5721 5719 5718 5716 5715 5713
5736 5736 5736 5736 5735 5736 5739 5739 5739 5740 5740 5739 5738 5738 5738 5738 5738 5738 5737 5737 5737 5737 5737 5736 5736 5735 5734 5733 5732 5731 5729 5728 5726 5724 5722 5720 5717 5715 5712 5710 5709 5708 5706 5705
5728 5728 5729 5728 5728 5732 5732 5731 5732 5732 5732 5731 5731 5731 5731 5731 5731 5730 5730 5730 5730 5730 5729 5729 5728 5727 5726 5725 5724 5723 5721 5719 5717 5715 5713 5711 5709 5706 5704 5702 5700 5699 5698 5696
5720 5721 5721 5722 5724 5724 5723 5723 5724 5724 5724 5724 5724 5724 5724 5724 5724 5723 5723 5723 5723 5722 5722 5721 5720 5719 5718 5717 5715 5714 5712 5710 5708 5706 5704 5702 5700 5698 5696 5694 5692 5691 5689 5688
5712 5713 5713 5713 5715 5715 5715 5715 5716 5716 5716 5717 5717 5717 5717 5717 5716 5716 5716 5715 5715 5714 5714 5713 5712 5710 5709 5708 5706 5705 5703 5701 5699 5697 5695 5694 5692 5690 5688 5686 5684 5683 5681 5680
5704 5704 5705 5705 5707 5707 5707 5708 5708 5708 5709 5709 5709 5710 5710 5710 5709 5708 5708 5707 5707 5706 5705 5704 5703 5701 5700 5699 5697 5695 5694 5692 5690 5689 5687 5685 5684 5682 5680 5678 5677 5675 5673 5671
5696 5696 5696 5698 5698 5698 5699 5700 5700 5700 5701 5701 5701 5702 5702 5702 5701 5700 5700 5699 5698 5697 5696 5695 5694 5692 5690 5689 5687 5686 5684 5683 5681 5680 5678 5677 5675 5674 5672 5671 5669 5667 5665 5663